Regional Weather Roundup
Issued by NWS

Home | Current Version | Previous Version | Graphics & Text | Print | Product List | Glossary On
Versions: 1 2 3 4 5 6 7 8 9 10 11 12 13 14 15 16 17 18 19 20 21 22 23 24 25 26 27 28 29 30 31 32 33 34 35 36 37 38 39 40 41 42 43 44 45 46 47 48 49 50
000
ASUS45 KBOU 261107
RWRCO

WEATHER ROUNDUP FOR COLORADO
NATIONAL WEATHER SERVICE DENVER/BOULDER CO
500 AM MDT MON JUN 26 2017

NOTE: "FAIR" INDICATES FEW OR NO CLOUDS BELOW 12000 FEET WITH NO
SIGNIFICANT WEATHER AND/OR OBSTRUCTIONS TO VISIBILITY.

COZ001>005-013-030-031-261200-
...NORTHWEST COLORADO...

CITY           SKY/WX    TMP DP  RH WIND       PRES   REMARKS
CRAIG          FAIR      40  33  76 CALM      30.31S
HAYDEN         FAIR      48  28  46 E12       30.33S
MEEKER         FAIR      46  32  58 E6        30.32S
RABBIT EARS PA FAIR      52  27  37 CALM      30.59S
STEAMBOAT SPGS FAIR      43  33  68 CALM      30.37S
WALDEN         FAIR      36  28  75 SE6       30.46S
$$

COZ006>008-011-261200-
...WEST CENTRAL VALLEYS...

CITY           SKY/WX    TMP DP  RH WIND       PRES   REMARKS
GRAND JUNCTION FAIR      64  30  27 VRB3      30.15R
MONTROSE       FAIR      54  33  45 SE9       30.26R
EAGLE          FAIR      46  30  53 CALM      30.40R
RIFLE          FAIR      53  30  41 CALM      30.26S
DELTA          FAIR      61  32  32 NE6       30.22S
NUCLA          FAIR      59  28  31 SE10      30.27R
$$

COZ017>023-064>068-261200-
...SOUTHWEST COLORADO...

CITY           SKY/WX    TMP DP  RH WIND       PRES   REMARKS
DURANGO        FAIR      51  36  56 NE3       30.32S
CORTEZ         FAIR      48  32  53 E5        30.25R
PAGOSA SPRINGS FAIR      50  37  62 CALM      30.41S
TELLURIDE      FAIR      53  26  34 SE7       30.50R
WOLF CREEK PAS FAIR      43  36  75 CALM      30.72S
$$

COZ009-010-012-014-032>034-037-058>063-261200-
...CENTRAL COLORADO...

CITY           SKY/WX    TMP DP  RH WIND       PRES   REMARKS
ASPEN          FAIR      47  32  56 SW7       30.41R
BUENA VISTA    CLOUDY    56  50  79 CALM      30.46R
COPPER MTN     FAIR      48  27  43 W3        30.69R
BERTHOUD PASS  FAIR      37  27  65 NW5       30.71S
COTTONWOOD PAS MOCLDY    54  45  71 W5        30.57S
GUNNISON       FAIR      45  35  68 VRB5      30.43R
KREMMLING      NOT AVBL
LEADVILLE      CLOUDY    45  39  79 CALM      30.56S
MONARCH PASS     N/A     43  41  93 E3        30.79S
SALIDA         MOCLDY    56  52  84 SW5       30.51R
SUNLIGHT       FAIR      46  23  39 NE5       30.63S
WILKERSON PASS FOG       45  43  93 SW3       30.68R VSB 1/2
$$

COZ069>075-261200-
...SAN LUIS VALLEY/SANGRE DE CRISTO MOUNTAINS...

CITY           SKY/WX    TMP DP  RH WIND       PRES   REMARKS
ALAMOSA        FAIR      49  46  90 E9        30.40R
DEL NORTE      FAIR      48  35  61 W9        30.45S
LA VETA PASS   FOG       46  45  93 CALM      30.68S VSB<1/4
SAGUACHE       FAIR      50  41  71 NW7       30.44S
$$

COZ035-036-038>040-261200-
...NORTHERN COLORADO FRONT RANGE...

CITY           SKY/WX    TMP DP  RH WIND       PRES   REMARKS
DENVER INTL AP FAIR      56  52  86 S6        30.28S
DMNS CITY PARK   N/A     57  55  92 E8        30.28R
AURORA         PTCLDY    59  55  87 S14       30.28F
FRONT RANGE AP FAIR      59  54  82 SW6       30.29S
ERIE MUNI ARPT FAIR      51  50  93 CALM      30.28S
BOULDER MUN AP FAIR      54  50  87 CALM      30.28S
CENTENNIAL     FAIR      56  54  93 S9        30.30S
BROOMFIELD     FAIR      55  50  82 NW7       30.29S
FORT COLLINS   FAIR      52  50  93 N5        30.28R
LONGMONT       FAIR      52  47  85 CALM      30.29S
$$

COZ041-046-047-076>085-087-088-261200-
...PIKES PEAK/PALMER DIVIDE AND SOUTHERN FOOTHILLS...

CITY           SKY/WX    TMP DP  RH WIND       PRES   REMARKS
COLO. SPRINGS  CLOUDY    59  59 100 S7        30.38S FOG
A. F. ACADEMY  CLOUDY    58  58 100 S8        30.38S
SCHRIEVER AFB  FOG       57  57  98 SE6       30.38S VSB 1/2
CHEYENNE MTN     N/A     55  55  97 S3        30.35F
ELLICOTT       CLOUDY   N/A N/A N/A SE3       30.36S
FALCON           N/A     56  56  99 SW8       30.41F FOG
FORT CARSON    CLOUDY    59  59 100 S3        30.35S
LIMON          CLOUDY    57  57 100 S8        30.32S
MONUMENT HILL  FAIR      54  52  94 S14       30.40S
CANON CITY     CLOUDY    63  63 100 MISG      30.33F
WALSENBURG     CLOUDY    61  59  94 CALM      30.36S
TRINIDAD       CLOUDY    60  57  89 CALM      30.36R FOG
$$

COZ042>045-048>051-090-091-261200-
...NORTHEAST COLORADO...

CITY           SKY/WX    TMP DP  RH WIND       PRES   REMARKS
GREELEY ARPT   FAIR      53  51  93 NW3       30.27S
AKRON          FAIR      56  52  86 SW10      30.26S
BURLINGTON     MOCLDY    56  55  97 S8        30.27F
WRAY           FAIR     N/A N/A N/A W5        30.24S
YUMA           FAIR      54  52  94 S8        30.24S
STERLING       FAIR      52  52 100 CALM      30.23F
HOLYOKE        NOT AVBL
FORT MORGAN    FAIR      54  51  91 W6        30.26S
$$

COZ086-089-092>099-261200-
...SOUTHEAST COLORADO...

CITY           SKY/WX    TMP DP  RH WIND       PRES   REMARKS
PUEBLO         CLOUDY    62  59  90 SE7       30.30S
LA JUNTA       CLOUDY    60  55  83 E7        30.28S
LAMAR          CLOUDY    61  55  81 S5        30.26S
SPRINGFIELD      N/A     61  60  97 S7        30.28F
$$



USA.gov is the U.S. government's official web portal to all federal, state and local government web resources and services.